This demonstration page uses our WeatherBlox Daily Observations layout. Learn more.

Left ArrowRight Arrow

53.62937, 11.41316

Hourly Observations for November 12, 2018

Temp ( °F °C ) Dew Point ( °F °C ) Humidity (%) Winds ( mph kmh ) Pressure ( in mb ) Visibility ( mi km ) Precip ( " mm )
6:50 am 06:50 Mostly Cloudy 52 11 50 10 94 94 S 3 6 29.97 1015 30 48 N/A
7:20 am 07:20 Mostly Cloudy 52 11 50 10 94 94 VRB 2 4 29.97 1015 30 48 N/A
7:50 am 07:50 Mostly Cloudy 50 10 50 10 100 100 S 3 6 29.97 1015 30 48 N/A
8:20 am 08:20 Mostly Cloudy 50 10 50 10 100 100 SSE 6 9 29.97 1015 30 48 N/A
8:50 am 08:50 Mostly Cloudy 50 10 50 10 100 100 SSE 5 7 29.97 1015 30 48 N/A
9:20 am 09:20 Mostly Cloudy with Drizzle 50 10 48 9 94 94 SSE 5 7 29.97 1015 30 48 N/A
9:50 am 09:50 Mostly Cloudy with Drizzle 52 11 48 9 88 88 SE 6 9 29.94 1014 30 48 N/A
10:20 am 10:20 Mostly Cloudy 52 11 50 10 94 94 SSE 5 7 29.94 1014 30 48 N/A
10:50 am 10:50 Mostly Cloudy with Light Rain 52 11 50 10 94 94 SSE 3 6 29.97 1015 30 48 N/A
11:20 am 11:20 Mostly Cloudy with Light Rain 52 11 50 10 94 94 SE 5 7 29.97 1015 30 48 N/A
11:50 am 11:50 Mostly Cloudy with Drizzle 52 11 50 10 94 94 SE 3 6 29.94 1014 30 48 N/A
12:20 pm 12:20 Mostly Cloudy with Light Rain 52 11 50 10 94 94 SE 3 6 29.94 1014 4 6 N/A
12:50 pm 12:50 Mostly Cloudy 52 11 50 10 94 94 SE 5 7 29.94 1014 30 48 N/A
1:20 pm 13:20 Mostly Cloudy 52 11 50 10 94 94 ESE 5 7 29.91 1013 30 48 N/A
1:50 pm 13:50 Mostly Cloudy 52 11 50 10 94 94 ESE 5 7 29.91 1013 30 48 N/A
2:20 pm 14:20 Mostly Cloudy 52 11 50 10 94 94 ESE 5 7 29.88 1012 30 48 N/A
2:50 pm 14:50 Mostly Cloudy 52 11 52 11 100 100 SSE 6 9 29.88 1012 30 48 N/A
3:20 pm 15:20 Mostly Cloudy 54 12 52 11 94 94 SE 7 11 29.88 1012 30 48 N/A
3:50 pm 15:50 Partly Cloudy 54 12 52 11 94 94 SSE 5 7 29.88 1012 30 48 N/A
4:20 pm 16:20 Partly Cloudy 54 12 52 11 94 94 SSE 5 7 29.88 1012 30 48 N/A
4:50 pm 16:50 Partly Cloudy 54 12 52 11 94 94 S 3 6 29.88 1012 30 48 N/A
5:20 pm 17:20 Mostly Cloudy 55 13 52 11 88 88 VRB 2 4 29.88 1012 30 48 N/A
5:50 pm 17:50 Mostly Cloudy 54 12 52 11 94 94 W 2 4 29.88 1012 30 48 N/A
6:20 pm 18:20 Mostly Cloudy with Light Rain 54 12 52 11 94 94 VRB 2 4 29.88 1012 4 7 N/A
6:50 pm 18:50 Mostly Cloudy with Light Rain 54 12 54 12 100 100 S 3 6 29.91 1013 3 5 N/A

Powered by AerisWeather